Location: Sceptre
(50.8619°N, 109.2670°W)
Time: 09:47:11
(UTC+00:00)

SO-50 - Visible Passes

Search period start: 04 July 2022 00:00
Search period end: 14 July 2022 00:00
Orbit: 586 x 697 km, 64.6° (Epoch: 03 July)

Date Brightness Start Highest point End Pass type
(mag) Time Alt. Az. Time Alt. Az. Time Alt. Az.
04 Jul ? 06:24:43 25° SSE 06:26:17 30° ESE 06:30:31 10° ENE visible
04 Jul ? 08:02:16 12° WSW 08:06:30 54° NW 08:11:20 10° NE visible
04 Jul ? 09:44:18 10° WNW 09:47:58 21° NNW 09:51:40 10° NNE visible
05 Jul ? 05:10:35 10° ESE 05:11:07 10° ESE 05:11:39 10° E visible
05 Jul ? 06:47:53 25° SSW 06:50:32 61° SE 06:55:22 10° NE visible
05 Jul ? 08:26:56 10° W 08:31:17 33° NNW 08:35:46 10° NNE visible
05 Jul ? 10:09:53 10° NW 10:13:07 17° N 10:16:24 10° NNE visible
06 Jul ? 05:33:23 18° SE 05:35:03 22° ESE 05:38:44 10° ENE visible
06 Jul ? 07:10:55 14° SW 07:15:01 72° NW 07:19:56 10° NE visible
06 Jul ? 08:52:22 10° WNW 08:56:16 24° NNW 09:00:13 10° NNE visible
07 Jul ? 05:56:16 20° S 05:59:12 44° ESE 06:03:49 10° NE visible
07 Jul ? 07:35:10 10° WSW 07:39:42 41° NW 07:44:23 10° NE visible
07 Jul ? 09:17:57 10° WNW 09:21:22 19° NNW 09:24:50 10° NNE visible
08 Jul ? 04:41:25 11° SE 04:43:52 16° ESE 04:46:42 10° ENE visible
08 Jul ? 06:18:55 11° SW 06:23:34 85° SE 06:28:29 10° NE visible
08 Jul ? 08:00:27 10° W 08:04:35 27° NNW 08:08:49 10° NNE visible
08 Jul ? 09:43:27 10° NW 09:46:34 17° N 09:49:44 10° NE visible
09 Jul ? 05:03:46 10° S 05:07:55 31° ESE 05:12:11 10° ENE visible
09 Jul ? 06:43:29 10° WSW 06:48:10 53° NW 06:52:59 10° NE visible
09 Jul ? 08:25:59 10° WNW 08:29:38 21° NNW 08:33:20 10° NNE visible
09 Jul ? 10:08:36 10° NW 10:11:48 17° N 10:15:01 10° NE visible
10 Jul ? 05:27:30 10° SSW 05:32:11 63° SE 05:37:01 10° NE visible
10 Jul ? 07:08:36 10° W 07:12:57 33° NNW 07:17:25 10° NNE visible
10 Jul ? 08:51:33 10° NW 08:54:48 17° N 08:58:03 10° NNE visible
11 Jul ? 04:13:01 10° SSE 04:16:40 23° ESE 04:20:25 10° ENE visible
11 Jul ? 05:51:54 10° SW 05:56:40 70° NW 06:01:35 10° NE visible
11 Jul ? 07:34:02 10° WNW 07:37:55 23° NNW 07:41:53 10° NNE visible
11 Jul ? 09:16:54 10° NW 09:20:02 16° N 09:23:09 10° NE visible
12 Jul ? 04:36:20 10° SSW 04:40:49 45° ESE 04:45:29 10° NE visible
12 Jul ? 06:16:49 10° WSW 06:21:21 41° NW 06:26:01 10° NE visible
12 Jul ? 07:59:37 10° WNW 08:03:02 18° NNW 08:06:29 10° NNE visible
12 Jul ? 09:41:51 10° NNW 09:45:13 18° NNE 09:48:37 10° NE visible
13 Jul ? 05:00:27 10° SW 05:05:12 87° SE 05:10:08 10° NE visible
13 Jul ? 06:42:07 10° W 06:46:15 27° NNW 06:50:27 10° NNE visible
13 Jul ? 08:25:06 10° NW 08:28:14 17° N 08:31:23 10° NE visible
13 Jul ? 10:06:30 10° NNW 10:10:22 22° NNE 10:14:13 10° ENE visible
